Home   Weather   Wailuku   Past weeks
Flag for USA

Past Weather in Wailuku, Hawaii, USA — Yesterday and Last 2 Weeks

Now
88 °F

Scattered clouds.


Feels Like: 90 °F
Forecast: 87 / 75 °F
Wind: 21 mph from Northeast

Location: Kahului Airport

Current Time: Oct 16, 2019 at 11:59:12 am

Latest Report: Oct 16, 2019 at 10:54 am


Visibility: 10 mi

Pressure: 30.02 "Hg

Humidity: 46%

Dew Point: 65 °F

Location of WailukuLocation

Past Weather in Wailuku — Graph

°F

Wailuku Temperature Yesterday

Maximum temperature yesterday: 87 °F (at 11:54 am)
Minimum temperature yesterday: 75 °F (at 1:54 am)
Average temperature yesterday: 80 °F

High & Low Weather Summary for the Past Weeks

 TemperatureHumidityPressure
High94 °F (Oct 10, 12:54 pm)91% (Oct 2, 11:54 pm)30.07 "Hg (Oct 2, 11:54 pm)
Low67 °F (Oct 5, 5:54 am)37% (Oct 13, 11:54 am)29.83 "Hg (Oct 9, 2:54 pm)
Average81 °F67%29.95 "Hg
* Reported Oct 1 9:54 am — Oct 16 9:54 am, Wailuku. Weather by CustomWeather, © 2019

Note: Actual official high and low records may vary slightly from our data, if they occured in-between our weather recording intervals... More about our weather records

Advertising

Wailuku Weather History for the Previous 24 Hours

Scroll right to see more
 ConditionsComfort  
Time TempWeatherWind HumidityBarometerVisibility
9:54 am
Wed, Oct 16
86 °FScattered clouds.15 mph55%30.04 "Hg10 mi
8:54 am84 °FScattered clouds.15 mph59%30.03 "Hg10 mi
7:54 am80 °FScattered clouds.10 mph67%30.02 "Hg10 mi
6:54 am77 °FPassing clouds.13 mph77%30.00 "Hg10 mi
5:54 am77 °FPassing clouds.13 mph71%29.98 "Hg10 mi
4:54 am77 °FClear.13 mph74%29.97 "Hg10 mi
3:54 am76 °FClear.6 mph80%29.98 "Hg10 mi
2:54 am76 °FPassing clouds.8 mph74%29.99 "Hg10 mi
1:54 am77 °FOvercast.7 mph77%30.02 "Hg10 mi
12:54 am76 °FPassing clouds.12 mph88%30.03 "Hg10 mi
11:54 pm
Tue, Oct 15
78 °FClear.10 mph74%30.04 "Hg10 mi
10:54 pm78 °FPassing clouds.10 mph76%30.05 "Hg10 mi
9:54 pm78 °FPassing clouds.8 mph76%30.05 "Hg10 mi
8:54 pm78 °FPassing clouds.8 mph74%30.06 "Hg10 mi
7:54 pm79 °FPassing clouds.10 mph72%30.04 "Hg10 mi
6:54 pm80 °FPassing clouds.8 mph69%30.03 "Hg10 mi
5:54 pm81 °FPassing clouds.15 mph65%30.02 "Hg10 mi
4:54 pm83 °FScattered clouds.18 mph61%30.01 "Hg10 mi
3:54 pm85 °FScattered clouds.23 mph61%30.00 "Hg10 mi
2:54 pm86 °FScattered clouds.18 mph57%29.99 "Hg10 mi
1:54 pm87 °FScattered clouds.23 mph55%29.99 "Hg10 mi
12:54 pm87 °FPassing clouds.22 mph57%30.01 "Hg10 mi
11:54 am87 °FPassing clouds.20 mph57%30.04 "Hg10 mi
Weather by CustomWeather, © 2019

See weather overview